Location: Aulus
(42.7909°N, 1.3399°E)
Time: 20:49:27
(UTC+00:00)

Cosmos 1420 Rocket - Pass Details

Date: 19 May 2025
Orbit: 750 x 777 km, 74.0° (Epoch: 18 June)

Event Time Altitude Azimuth Distance (km) Brightness Sun altitude
Rises 23:35:30 0° 343° (NNW) 3,267 8.5 -27.1°
Reaches altitude 10° 23:37:56 10° 347° (NNW) 2,335 7.5 -27.1°
Maximum altitude 23:43:10 58° 67° (ENE) 903 4.3 -27.2°
Enters shadow 23:43:28 57° 81° (E) 911 4.3 -27.2°
